Regional Weather Roundup
Issued by NWS

Home | Current Version | Previous Version | Text Only | Print | Product List | Glossary On
Versions: 1 2 3 4 5 6 7 8 9 10 11 12 13 14 15 16 17 18 19 20 21 22 23 24 25 26 27 28 29 30 31 32 33 34 35 36 37 38 39 40 41 42 43 44 45 46 47 48 49 50
000
ASPQ40 PGUM 042114
RWRPQ
WEATHER ROUNDUP FOR THE MARIANAS AND MICRONESIA
NATIONAL WEATHER SERVICE TIYAN GU
700 AM CHST SUN JUL 05 2015

GUZ001>004-042200-
MARIANA ISLANDS-

CITY           SKY/WX    TMP DP  RH WIND       PRES   REMARKS
GUAM AIRPORT   HVY RAIN  77  77 100 W21G29    29.45S FOG
ANDERSEN AFB   HVY RAIN  75  73  94 W23G31    29.44R VSB 1/4
ROTA AIRPORT   NOT AVBL
TINIAN AP      NOT AVBL
SAIPAN AP      RAIN      81  79  94 NE29G39   29.46R

$$

PMZ161-042200-
REPUBLIC OF PALAU-

CITY           SKY/WX    TMP DP  RH WIND       PRES   REMARKS
KOROR AP       MOCLDY    81  75  83 W10       29.81R
KOROR WSO      MOCLDY    82  75  78 W8        29.81R

$$

PMZ171>174-042200-
FEDERATED STATES OF MICRONESIA-

CITY           SKY/WX    TMP DP  RH WIND       PRES   REMARKS
YAP AIRPORT    LGT RAIN  79  75  89 W9        29.76R
CHUUK AP       CLOUDY    81  77  89 S8        29.77R
POHNPEI AP     NOT AVBL
POHNPEI WSO    CLOUDY    81  77  89 SW3       29.83R
KOSRAE AP      NOT AVBL

$$

PMZ181-042200-
REPUBLIC OF THE MARSHALL ISLANDS-

CITY           SKY/WX    TMP DP  RH WIND       PRES   REMARKS
KWAJALEIN AP   SUNNY     82  75  78 S10       29.77R
MAJURO AP      PTSUNNY   86  77  74 S9        29.78  HX  97
MAJURO WSO     PTSUNNY   86  79  79 VRB5      29.79R HX  99

$$




USA.gov is the U.S. government's official web portal to all federal, state and local government web resources and services.